�������l�o���
Date,Time,MP-1(��Sv/h),MP-2(��Sv/h),MP-3(��Sv/h),MP-4(��Sv/h),MP-5(��Sv/h),MP-6(��Sv/h),MP-7(��Sv/h),MP-8(��Sv/h),����,����(m/s),���J
2021/03/01,00:00,0.660,0.966,0.606,1.208,0.858,0.377,0.670,0.627,��쐼,7.6,��
2021/03/01,00:10,0.661,0.967,0.606,1.209,0.858,0.377,0.669,0.627,��쐼,7.8,��
2021/03/01,00:20,0.660,0.965,0.608,1.209,0.857,0.377,0.670,0.625,��,8.4,��
2021/03/01,00:30,0.659,0.966,0.605,1.209,0.860,0.377,0.669,0.625,��,8.0,��
2021/03/01,00:40,0.658,0.965,0.607,1.207,0.858,0.378,0.671,0.626,��,8.3,��
2021/03/01,00:50,0.660,0.964,0.605,1.210,0.858,0.378,0.668,0.625,��,8.0,��
2021/03/01,01:00,0.658,0.965,0.607,1.209,0.856,0.376,0.669,0.628,��,6.3,��
2021/03/01,01:10,0.658,0.966,0.607,1.210,0.855,0.378,0.669,0.627,��,5.7,��
2021/03/01,01:20,0.657,0.965,0.606,1.208,0.855,0.378,0.669,0.627,��,5.3,��
2021/03/01,01:30,0.658,0.965,0.606,1.207,0.857,0.377,0.669,0.626,��,5.4,��
2021/03/01,01:40,0.659,0.965,0.607,1.208,0.856,0.378,0.667,0.626,��,5.5,��
2021/03/01,01:50,0.659,0.963,0.607,1.209,0.854,0.378,0.670,0.625,��,5.7,��
2021/03/01,02:00,0.660,0.966,0.607,1.207,0.856,0.377,0.669,0.626,��,6.6,��
2021/03/01,02:10,0.660,0.962,0.608,1.209,0.856,0.376,0.668,0.624,��쐼,7.7,��
2021/03/01,02:20,0.660,0.965,0.607,1.209,0.858,0.377,0.668,0.625,��쐼,7.2,��
2021/03/01,02:30,0.661,0.966,0.607,1.207,0.855,0.378,0.670,0.627,��쐼,7.4,��
2021/03/01,02:40,0.659,0.966,0.606,1.207,0.855,0.377,0.668,0.627,��쐼,6.8,��
2021/03/01,02:50,0.659,0.966,0.608,1.208,0.856,0.378,0.669,0.626,��,7.9,��
2021/03/01,03:00,0.659,0.965,0.608,1.209,0.857,0.378,0.670,0.627,��쐼,8.2,��
2021/03/01,03:10,0.661,0.965,0.605,1.206,0.856,0.378,0.669,0.628,��쐼,7.9,��
2021/03/01,03:20,0.660,0.966,0.607,1.207,0.857,0.378,0.669,0.627,��쐼,7.2,��
2021/03/01,03:30,0.661,0.965,0.606,1.209,0.858,0.378,0.669,0.625,��쐼,6.9,��
2021/03/01,03:40,0.660,0.964,0.607,1.209,0.857,0.378,0.667,0.626,��쐼,6.9,��
2021/03/01,03:50,0.660,0.965,0.607,1.208,0.856,0.378,0.667,0.626,��쐼,5.9,��
2021/03/01,04:00,0.661,0.962,0.608,1.209,0.856,0.379,0.670,0.626,��쐼,5.6,��
2021/03/01,04:10,0.660,0.965,0.606,1.210,0.856,0.378,0.670,0.626,��쐼,5.8,��
2021/03/01,04:20,0.661,0.963,0.606,1.209,0.856,0.378,0.669,0.626,��쐼,5.2,��
2021/03/01,04:30,0.661,0.963,0.606,1.209,0.855,0.377,0.669,0.627,��,6.0,��
2021/03/01,04:40,0.659,0.965,0.608,1.209,0.856,0.379,0.670,0.626,��,6.0,��
2021/03/01,04:50,0.659,0.964,0.606,1.207,0.855,0.378,0.669,0.627,��,5.7,��
2021/03/01,05:00,0.661,0.966,0.606,1.209,0.856,0.378,0.670,0.626,��,6.9,��
2021/03/01,05:10,0.661,0.963,0.606,1.206,0.856,0.379,0.670,0.625,��,7.9,��
2021/03/01,05:20,0.660,0.965,0.607,1.208,0.857,0.377,0.669,0.626,��,6.1,��
2021/03/01,05:30,0.661,0.966,0.606,1.209,0.857,0.376,0.671,0.627,��,5.2,��
2021/03/01,05:40,0.660,0.967,0.606,1.206,0.856,0.379,0.669,0.627,��,5.3,��
2021/03/01,05:50,0.660,0.962,0.605,1.207,0.855,0.378,0.669,0.626,��쓌,4.0,��
2021/03/01,06:00,0.659,0.964,0.606,1.209,0.858,0.379,0.669,0.626,��,3.1,��
2021/03/01,06:10,0.661,0.966,0.606,1.208,0.856,0.378,0.670,0.624,��쐼,4.1,��
2021/03/01,06:20,0.660,0.964,0.607,1.208,0.855,0.379,0.669,0.627,��쐼,4.4,��
2021/03/01,06:30,0.660,0.966,0.606,1.206,0.856,0.379,0.669,0.626,��쐼,6.0,��
2021/03/01,06:40,0.661,0.965,0.607,1.208,0.856,0.378,0.671,0.626,��쐼,6.5,��
2021/03/01,06:50,0.660,0.963,0.607,1.207,0.857,0.378,0.668,0.626,��쐼,7.0,��
2021/03/01,07:00,0.661,0.963,0.606,1.210,0.853,0.378,0.670,0.627,��쐼,6.0,��
2021/03/01,07:10,0.659,0.965,0.608,1.210,0.858,0.376,0.670,0.627,��쐼,7.0,��
2021/03/01,07:20,0.661,0.962,0.605,1.210,0.857,0.378,0.669,0.626,��쐼,6.9,��
2021/03/01,07:30,0.661,0.965,0.606,1.208,0.856,0.379,0.669,0.625,��쐼,6.9,��
2021/03/01,07:40,0.660,0.965,0.606,1.209,0.856,0.379,0.671,0.628,��쐼,5.8,��
2021/03/01,07:50,0.662,0.965,0.607,1.209,0.858,0.378,0.670,0.627,��쐼,4.1,��
2021/03/01,08:00,0.660,0.965,0.605,1.210,0.856,0.379,0.670,0.626,��쐼,5.2,��
2021/03/01,08:10,0.662,0.964,0.606,1.209,0.856,0.378,0.671,0.627,��,5.9,��
2021/03/01,08:20,0.661,0.965,0.605,1.208,0.854,0.379,0.672,0.626,��쐼,4.7,��
2021/03/01,08:30,0.662,0.969,0.607,1.209,0.857,0.378,0.671,0.626,��쐼,5.6,��
2021/03/01,08:40,0.660,0.965,0.607,1.209,0.855,0.378,0.670,0.626,��쐼,7.7,��
2021/03/01,08:50,0.660,0.964,0.606,1.210,0.857,0.378,0.669,0.627,��쐼,9.3,��
2021/03/01,09:00,0.662,0.962,0.608,1.210,0.857,0.376,0.669,0.628,��쐼,7.0,��
2021/03/01,09:10,0.662,0.962,0.608,1.211,0.858,0.379,0.669,0.627,��쐼,5.7,��
2021/03/01,09:20,0.661,0.961,0.609,1.211,0.854,0.380,0.669,0.627,��쐼,4.8,��
2021/03/01,09:30,0.662,0.958,0.607,1.210,0.857,0.378,0.670,0.628,��쐼,4.7,��
2021/03/01,09:40,0.661,0.957,0.607,1.208,0.856,0.379,0.669,0.627,��쐼,5.2,��
2021/03/01,09:50,0.662,0.962,0.606,1.209,0.857,0.382,0.670,0.630,��쐼,4.2,��
2021/03/01,10:00,0.662,0.961,0.608,1.211,0.859,0.379,0.670,0.627,��쐼,7.3,��
2021/03/01,10:10,0.662,0.959,0.608,1.211,0.858,0.380,0.669,0.627,�쐼,5.7,��
2021/03/01,10:20,0.662,0.960,0.608,1.213,0.858,0.379,0.670,0.626,��쐼,6.2,��
2021/03/01,10:30,0.661,0.959,0.607,1.210,0.858,0.377,0.670,0.626,��,4.4,��
2021/03/01,10:40,0.662,0.961,0.609,1.210,0.857,0.378,0.669,0.625,��,5.9,��
2021/03/01,10:50,0.660,0.962,0.609,1.211,0.856,0.378,0.670,0.626,��,9.2,��
2021/03/01,11:00,0.659,0.960,0.606,1.209,0.855,0.377,0.670,0.624,��쓌,10.2,��
2021/03/01,11:10,0.659,0.963,0.607,1.210,0.856,0.379,0.669,0.625,��쓌,11.9,��
2021/03/01,11:20,0.661,0.965,0.607,1.211,0.856,0.378,0.672,0.625,��,8.7,��
2021/03/01,11:30,0.660,0.961,0.607,1.209,0.856,0.380,0.670,0.624,��,8.2,��
2021/03/01,11:40,0.660,0.964,0.608,1.210,0.857,0.378,0.669,0.625,��,9.8,��
2021/03/01,11:50,0.661,0.962,0.607,1.211,0.856,0.377,0.671,0.627,��,10.7,��
2021/03/01,12:00,0.661,0.962,0.606,1.212,0.857,0.378,0.670,0.625,��쓌,11.4,��
2021/03/01,12:10,0.661,0.967,0.608,1.213,0.856,0.378,0.670,0.626,��쓌,11.8,��
2021/03/01,12:20,0.660,0.965,0.605,1.213,0.857,0.379,0.671,0.626,��쓌,12.1,��
2021/03/01,12:30,0.660,0.965,0.606,1.210,0.858,0.378,0.671,0.625,��쓌,14.4,��
2021/03/01,12:40,0.660,0.967,0.605,1.211,0.857,0.380,0.671,0.625,��쓌,13.5,��
2021/03/01,12:50,0.661,0.964,0.606,1.213,0.857,0.379,0.669,0.625,��쓌,14.1,��
2021/03/01,13:00,0.659,0.967,0.606,1.212,0.860,0.380,0.673,0.626,��,11.9,��
2021/03/01,13:10,0.661,0.963,0.605,1.211,0.858,0.381,0.672,0.625,��,12.4,��
2021/03/01,13:20,0.659,0.964,0.607,1.211,0.857,0.381,0.671,0.626,��쓌,12.4,��
2021/03/01,13:30,0.662,0.962,0.607,1.210,0.860,0.381,0.673,0.625,��쓌,14.4,��
2021/03/01,13:40,0.660,0.963,0.607,1.212,0.859,0.382,0.670,0.626,��쓌,12.7,��
2021/03/01,13:50,0.660,0.964,0.607,1.214,0.859,0.381,0.670,0.624,��쓌,13.3,��
2021/03/01,14:00,0.660,0.964,0.607,1.211,0.860,0.380,0.670,0.626,��,14.1,��
2021/03/01,14:10,0.659,0.960,0.607,1.214,0.858,0.379,0.670,0.625,��쓌,14.1,��
2021/03/01,14:20,0.661,0.964,0.608,1.212,0.856,0.380,0.672,0.625,��,11.1,��
2021/03/01,14:30,0.660,0.963,0.606,1.211,0.858,0.380,0.671,0.625,��쓌,12.4,��
2021/03/01,14:40,0.659,0.964,0.606,1.211,0.858,0.380,0.670,0.625,��쓌,12.1,��
2021/03/01,14:50,0.660,0.963,0.607,1.212,0.858,0.381,0.672,0.624,��,12.7,��
2021/03/01,15:00,0.659,0.963,0.606,1.211,0.859,0.381,0.670,0.624,��,11.0,��
2021/03/01,15:10,0.660,0.966,0.606,1.212,0.857,0.381,0.670,0.625,��,11.8,��
2021/03/01,15:20,0.658,0.965,0.608,1.213,0.859,0.382,0.672,0.624,��,12.4,��
2021/03/01,15:30,0.661,0.966,0.606,1.211,0.860,0.382,0.672,0.625,��,14.1,��
2021/03/01,15:40,0.660,0.965,0.605,1.210,0.858,0.382,0.673,0.626,��,12.8,��
2021/03/01,15:50,0.659,0.968,0.606,1.213,0.859,0.381,0.671,0.625,��,11.8,��
2021/03/01,16:00,0.660,0.967,0.607,1.212,0.859,0.383,0.670,0.625,��,12.1,��
2021/03/01,16:10,0.660,0.968,0.606,1.214,0.858,0.381,0.670,0.623,��,13.0,��
2021/03/01,16:20,0.659,0.966,0.605,1.210,0.858,0.381,0.671,0.625,��쓌,11.6,��
2021/03/01,16:30,0.661,0.966,0.606,1.214,0.858,0.381,0.670,0.626,��,11.8,��
2021/03/01,16:40,0.661,0.965,0.608,1.211,0.858,0.382,0.671,0.624,��,11.3,��
2021/03/01,16:50,0.662,0.966,0.607,1.212,0.858,0.382,0.669,0.626,��쓌,12.1,��
2021/03/01,17:00,0.663,0.966,0.608,1.212,0.857,0.383,0.671,0.627,��,10.6,��
2021/03/01,17:10,0.660,0.966,0.609,1.215,0.857,0.383,0.672,0.627,��,9.5,��
2021/03/01,17:20,0.663,0.967,0.608,1.211,0.858,0.383,0.669,0.629,��,10.2,��
2021/03/01,17:30,0.664,0.967,0.610,1.212,0.860,0.382,0.671,0.629,��,10.5,��
2021/03/01,17:40,0.662,0.968,0.608,1.211,0.860,0.384,0.672,0.628,��,7.6,��
2021/03/01,17:50,0.663,0.967,0.609,1.210,0.860,0.382,0.673,0.628,��쐼,9.5,��
2021/03/01,18:00,0.662,0.969,0.610,1.211,0.860,0.381,0.672,0.628,��,8.8,��
2021/03/01,18:10,0.664,0.970,0.610,1.213,0.861,0.384,0.671,0.630,��,10.2,��
2021/03/01,18:20,0.664,0.967,0.610,1.210,0.861,0.383,0.672,0.628,��,9.8,��
2021/03/01,18:30,0.662,0.969,0.609,1.211,0.862,0.382,0.671,0.628,��,11.6,��
2021/03/01,18:40,0.663,0.970,0.610,1.211,0.862,0.381,0.672,0.629,��,10.8,��
2021/03/01,18:50,0.663,0.966,0.608,1.213,0.862,0.382,0.670,0.627,��,10.5,��
2021/03/01,19:00,0.662,0.969,0.611,1.213,0.861,0.383,0.672,0.628,��,11.0,��
2021/03/01,19:10,0.662,0.967,0.609,1.213,0.860,0.383,0.671,0.628,��,9.9,��
2021/03/01,19:20,0.663,0.968,0.611,1.211,0.864,0.382,0.673,0.628,��,9.6,��
2021/03/01,19:30,0.661,0.969,0.610,1.213,0.862,0.380,0.672,0.629,��,8.5,��
2021/03/01,19:40,0.663,0.969,0.609,1.212,0.861,0.381,0.672,0.627,��,8.8,��
2021/03/01,19:50,0.664,0.968,0.608,1.213,0.863,0.380,0.670,0.627,��,11.6,��
2021/03/01,20:00,0.665,0.970,0.610,1.211,0.860,0.382,0.673,0.628,��,11.3,��
2021/03/01,20:10,0.664,0.969,0.610,1.210,0.861,0.381,0.672,0.628,��,10.9,��
2021/03/01,20:20,0.662,0.970,0.608,1.212,0.860,0.381,0.672,0.629,��,9.6,��
2021/03/01,20:30,0.663,0.970,0.609,1.215,0.862,0.382,0.671,0.629,��,10.2,��
2021/03/01,20:40,0.666,0.970,0.610,1.213,0.860,0.381,0.672,0.628,��,11.9,��
2021/03/01,20:50,0.664,0.969,0.610,1.212,0.861,0.382,0.671,0.628,��,11.9,��
2021/03/01,21:00,0.663,0.970,0.610,1.211,0.860,0.381,0.672,0.628,��,10.3,��
2021/03/01,21:10,0.664,0.970,0.611,1.212,0.862,0.381,0.672,0.629,��,10.5,��
2021/03/01,21:20,0.662,0.969,0.609,1.211,0.861,0.382,0.671,0.628,��,7.9,��
2021/03/01,21:30,0.663,0.969,0.609,1.214,0.861,0.383,0.671,0.628,��쐼,7.4,��
2021/03/01,21:40,0.665,0.969,0.610,1.213,0.863,0.382,0.671,0.629,��,10.0,��
2021/03/01,21:50,0.664,0.968,0.609,1.210,0.861,0.382,0.671,0.626,��,9.4,��
2021/03/01,22:00,0.664,0.968,0.608,1.212,0.861,0.382,0.672,0.628,��,9.3,��
2021/03/01,22:10,0.661,0.968,0.610,1.210,0.860,0.382,0.673,0.628,��쐼,9.2,��
2021/03/01,22:20,0.665,0.969,0.609,1.210,0.861,0.381,0.673,0.627,��쐼,10.5,��
2021/03/01,22:30,0.664,0.969,0.610,1.211,0.862,0.383,0.672,0.627,��쐼,9.9,��
2021/03/01,22:40,0.664,0.970,0.610,1.213,0.862,0.381,0.673,0.628,��쐼,11.6,��
2021/03/01,22:50,0.663,0.969,0.611,1.211,0.860,0.383,0.674,0.628,��쐼,11.6,��
2021/03/01,23:00,0.663,0.970,0.609,1.211,0.861,0.382,0.672,0.628,��쐼,11.0,��
2021/03/01,23:10,0.664,0.969,0.609,1.213,0.861,0.383,0.670,0.630,��,13.0,��
2021/03/01,23:20,0.664,0.970,0.609,1.212,0.861,0.382,0.673,0.628,��,13.6,��
2021/03/01,23:30,0.663,0.969,0.610,1.212,0.861,0.383,0.672,0.628,��,13.9,��
2021/03/01,23:40,0.665,0.968,0.610,1.212,0.861,0.383,0.672,0.628,��,12.4,��
2021/03/01,23:50,0.665,0.969,0.611,1.210,0.860,0.382,0.670,0.629,��쐼,12.8,��
